This is the latest recevied weather packets stored in our database for station/object N8BAP. If no packets are shown the sender has not sent any weather packets the latest 10 day(s).
| Time | Temp. | Humidity | Pressure | Rain* | Wind** | Luminosity | Snow |
|---|---|---|---|---|---|---|---|
| 1777590814 | 13.33° C | 46% | 1020.1 hPa | 0 mm | - | 102 W/m² | - |
| 1777590511 | 13.89° C | 48% | 1020 hPa | 0 mm | - | 115 W/m² | - |
| 1777590207 | 13.89° C | 44% | 1020.2 hPa | 0 mm | - | 125 W/m² | - |
| 1777589904 | 13.89° C | 44% | 1020.1 hPa | 0 mm | - | 95 W/m² | - |
| 1777589599 | 13.89° C | 44% | 1020.2 hPa | 0 mm | - | 150 W/m² | - |
| 1777589297 | 13.89° C | 48% | 1020.1 hPa | 0 mm | - | 169 W/m² | - |
| 1777588994 | 13.33° C | 45% | 1020.4 hPa | 0 mm | - | 175 W/m² | - |
| 1777588690 | 13.89° C | 43% | 1020.4 hPa | 0 mm | - | 60 W/m² | - |
| 1777588386 | 14.44° C | 43% | 1020.4 hPa | 0 mm | - | 200 W/m² | - |
| 1777588082 | 14.44° C | 45% | 1020.4 hPa | 0 mm | - | 232 W/m² | - |
| 1777587772 | 15° C | 43% | 1020.4 hPa | 0 mm | - | 267 W/m² | - |
| 1777587471 | 14.44° C | 42% | 1020.2 hPa | 0 mm | - | 294 W/m² | - |
| 1777587168 | 13.89° C | 46% | 1020.3 hPa | 0 mm | - | 309 W/m² | - |
| 1777586864 | 13.89° C | 44% | 1020.2 hPa | 0 mm | - | 315 W/m² | - |
| 1777586559 | 13.89° C | 47% | 1020.4 hPa | 0 mm | - | 313 W/m² | - |
| 1777586255 | 14.44° C | 44% | 1020.3 hPa | 0 mm | - | 345 W/m² | - |
| 1777585953 | 13.89° C | 46% | 1020.4 hPa | 0 mm | - | 376 W/m² | - |
| 1777585648 | 13.33° C | 46% | 1020.2 hPa | 0 mm | - | 303 W/m² | - |
| 1777585343 | 12.78° C | 45% | 1020.3 hPa | 0 mm | - | 394 W/m² | - |
| 1777585038 | 13.33° C | 48% | 1020.5 hPa | 0 mm | - | 104 W/m² | - |
| 1777584735 | 13.33° C | 46% | 1020.3 hPa | 0 mm | - | 278 W/m² | - |
| 1777584433 | 14.44° C | 45% | 1020.1 hPa | 0 mm | - | 116 W/m² | - |
| 1777584129 | 14.44° C | 46% | 1020.4 hPa | 0 mm | - | 453 W/m² | - |
| 1777583828 | 14.44° C | 43% | 1020.2 hPa | 0 mm | - | 449 W/m² | - |
| 1777583523 | 14.44° C | 43% | 1020.2 hPa | 0 mm | - | 472 W/m² | - |
* Rain latest hour (hover to see other rain measurements)
** Current wind speed in m/s (hover to see current wind gust speed)